Overview Statistics Trail Chart Weather Telemetry Raw packets
 

This is the latest recevied weather packets stored in our database for station/object K9MWD. If no packets are shown the sender has not sent any weather packets the latest 10 day(s).

<< 9 10 11 12 13 14 15 >>
Time Temp. Humidity Pressure Rain* Wind** Luminosity Snow
1788571067 32.78° C 53% 1012.1 hPa 0 mm - 0 W/m² -
1788570763 32.78° C 52% 1012.2 hPa 0 mm - 0 W/m² -
1788570457 33.33° C 51% 1012.1 hPa 0 mm - 0 W/m² -
1788570152 33.33° C 50% 1012.1 hPa 0 mm - 0 W/m² -
1788569849 33.33° C 49% 1011.9 hPa 0 mm - 1 W/m² -
1788569545 33.89° C 49% 1011.8 hPa 0 mm - 2 W/m² -
1788569238 33.89° C 48% 1011.8 hPa 0 mm - 4 W/m² -
1788568934 33.89° C 48% 1011.7 hPa 0 mm - 7 W/m² -
1788568634 33.89° C 47% 1011.7 hPa 0 mm - 11 W/m² -
1788568330 34.44° C 47% 1011.7 hPa 0 mm - 15 W/m² -
1788568025 34.44° C 47% 1011.6 hPa 0 mm - 19 W/m² -
1788567725 34.44° C 46% 1011.4 hPa 0 mm - 24 W/m² -
1788567420 35° C 46% 1011.5 hPa 0 mm - 28 W/m² -
1788567119 35° C 45% 1011.4 hPa 0 mm - 33 W/m² -
1788566815 35° C 45% 1011.4 hPa 0 mm - 39 W/m² -
1788566511 35° C 44% 1011.4 hPa 0 mm - 46 W/m² -
1788566210 35° C 44% 1011.4 hPa 0 mm - 54 W/m² -
1788565910 35.56° C 44% 1011.3 hPa 0 mm - 61 W/m² -
1788565605 35.56° C 43% 1011.2 hPa 0 mm - 67 W/m² -
1788565301 35.56° C 43% 1011.3 hPa 0 mm - 75 W/m² -
1788564997 35.56° C 43% 1011.5 hPa 0 mm - 85 W/m² -
1788564692 35.56° C 43% 1011.4 hPa 0 mm - 94 W/m² -
1788564389 35.56° C 43% 1011.4 hPa 0 mm - 106 W/m² -
1788564085 35.56° C 43% 1011.4 hPa 0 mm - 119 W/m² -
1788563780 35.56° C 42% 1011.1 hPa 0 mm - 139 W/m² -

* Rain latest hour (hover to see other rain measurements)
** Current wind speed in m/s (hover to see current wind gust speed)